{"data":{"norad_id":65873,"epoch":"2026-09-20T20:46:31.115424Z","epoch_age_seconds":74473,"freshness":"FRESH","line1":"1 65873U 25223V   26263.86563791  .00006910  00000+0  21545-3 0  9992","line2":"2 65873  53.1583 103.6515 0000807 119.4656 240.6427 15.34398766 54145","mean_motion":15.34398766,"eccentricity":8.07e-5,"inclination_deg":53.1583,"raan_deg":103.6515,"arg_perigee_deg":119.4656,"mean_anomaly_deg":240.6427,"bstar":0.00021545,"rev_number":5414,"period_min":93.847833555935,"perigee_km":462.15485181425,"apogee_km":463.25896402099,"semimajor_km":6840.8439079176,"source":"CELESTRAK","updated_at":"2026-09-21T09:00:35.752590Z"}}